| time (UTC) | temp F | wind direction | speed MPH | gust MPH | rain 1hr in | rain 24hr in | rain mn in | humidity % | barometer mb |
| 20260902202858 | 79 | 90 | 3.0 | 4.0 | 0.00 | 0.00 | 0.00 | 8 | 1016.5 |
| 20260902202855 | 79 | 90 | 3.0 | 4.0 | 0.00 | 0.00 | 0.00 | 8 | 1016.5 |
| 20260902202344 | 79 | 90 | 3.0 | 4.0 | 0.00 | 0.00 | 0.00 | 8 | 1016.6 |
| 20260902201900 | 79 | 112 | 3.0 | 6.0 | 0.00 | 0.00 | 0.00 | 8 | 1016.4 |
| 20260902201433 | 79 | 112 | 5.0 | 6.0 | 0.00 | 0.00 | 0.00 | 8 | 1016.3 |
| 20260902201030 | 79 | 90 | 3.0 | 6.0 | 0.00 | 0.00 | 0.00 | 8 | 1016.4 |
| 20260902200610 | 79 | 90 | 6.0 | 8.0 | 0.00 | 0.00 | 0.00 | 8 | 1016.2 |
| 20260902200145 | 79 | 90 | 5.0 | 6.0 | 0.00 | 0.00 | 0.00 | 8 | 1016.2 |
| 20260902195650 | 79 | 67 | 3.0 | 6.0 | 0.00 | 0.00 | 0.00 | 8 | 1016.1 |
| 20260902195445 | 79 | 90 | 3.0 | 6.0 | 0.00 | 0.00 | 0.00 | 8 | 1016.1 |
| 20260902195025 | 79 | 90 | 3.0 | 4.0 | 0.00 | 0.00 | 0.00 | 9 | 1016.0 |
| 20260902194606 | 79 | 90 | 3.0 | 6.0 | 0.00 | 0.00 | 0.00 | 8 | 1015.9 |
| 20260902194122 | 79 | 112 | 3.0 | 4.0 | 0.00 | 0.00 | 0.00 | 8 | 1015.8 |
| 20260902193705 | 79 | 90 | 3.0 | 4.0 | 0.00 | 0.00 | 0.00 | 8 | 1015.7 |
| 20260902193240 | 79 | 112 | 3.0 | 6.0 | 0.00 | 0.00 | 0.00 | 9 | 1015.5 |
| 20260902192745 | 79 | 90 | 3.0 | 6.0 | 0.00 | 0.00 | 0.00 | 9 | 1015.7 |
| 20260902192457 | 79 | 90 | 5.0 | 6.0 | 0.00 | 0.00 | 0.00 | 9 | 1015.6 |
| 20260902192426 | 79 | 90 | 5.0 | 6.0 | 0.00 | 0.00 | 0.00 | 9 | 1015.6 |
| 20260902191930 | 79 | 112 | 5.0 | 6.0 | 0.00 | 0.00 | 0.00 | 9 | 1015.4 |
| 20260902191512 | 79 | 90 | 6.0 | 9.0 | 0.00 | 0.00 | 0.00 | 9 | 1015.2 |
| 20260902191028 | 79 | 112 | 4.0 | 8.0 | 0.00 | 0.00 | 0.00 | 9 | 1015.4 |
| 20260902190645 | 79 | 90 | 4.0 | 6.0 | 0.00 | 0.00 | 0.00 | 9 | 1015.2 |
| 20260902190611 | 79 | 90 | 4.0 | 6.0 | 0.00 | 0.00 | 0.00 | 9 | 1015.2 |
| 20260902190146 | 79 | 112 | 6.0 | 8.0 | 0.00 | 0.00 | 0.00 | 9 | 1015.0 |
| 20260902185654 | 79 | 90 | 5.0 | 8.0 | 0.00 | 0.00 | 0.00 | 9 | 1015.0 |
| 20260902185651 | 79 | 90 | 5.0 | 8.0 | 0.00 | 0.00 | 0.00 | 9 | 1015.0 |
| 20260902185336 | 79 | 135 | 5.0 | 8.0 | 0.00 | 0.00 | 0.00 | 9 | 1015.0 |
| 20260902185249 | 79 | 67 | 5.0 | 6.0 | 0.00 | 0.00 | 0.00 | 9 | 1014.9 |
| 20260902184908 | 79 | 112 | 6.0 | 9.0 | 0.00 | 0.00 | 0.00 | 9 | 1014.8 |
| 20260902184448 | 79 | 90 | 5.0 | 9.0 | 0.00 | 0.00 | 0.00 | 9 | 1014.9 |
| 20260902184356 | 79 | 90 | 4.0 | 6.0 | 0.00 | 0.00 | 0.00 | 9 | 1014.8 |
| 20260902184012 | 79 | 90 | 4.0 | 8.0 | 0.00 | 0.00 | 0.00 | 9 | 1014.7 |
| 20260902183530 | 79 | 112 | 4.0 | 6.0 | 0.00 | 0.00 | 0.00 | 9 | 1014.9 |
| 20260902183112 | 79 | 112 | 6.0 | 8.0 | 0.00 | 0.00 | 0.00 | 9 | 1014.8 |
| 20260902182700 | 79 | 112 | 7.0 | 10.0 | 0.00 | 0.00 | 0.00 | 8 | 1014.6 |
| 20260902182658 | 79 | 112 | 7.0 | 10.0 | 0.00 | 0.00 | 0.00 | 8 | 1014.6 |
| 20260902182426 | 79 | 112 | 6.0 | 10.0 | 0.00 | 0.00 | 0.00 | 8 | 1014.8 |
| 20260902182245 | 79 | 135 | 6.0 | 8.0 | 0.00 | 0.00 | 0.00 | 8 | 1014.9 |
| 20260902182001 | 79 | 112 | 8.0 | 10.0 | 0.00 | 0.00 | 0.00 | 8 | 1014.7 |
| 20260902181516 | 79 | 90 | 6.0 | 10.0 | 0.00 | 0.00 | 0.00 | 8 | 1014.9 |
| 20260902181042 | 80 | 90 | 7.0 | 9.0 | 0.00 | 0.00 | 0.00 | 8 | 1015.0 |
| 20260902180554 | 80 | 112 | 7.0 | 9.0 | 0.00 | 0.00 | 0.00 | 8 | 1015.0 |
| 20260902180522 | 80 | 112 | 7.0 | 9.0 | 0.00 | 0.00 | 0.00 | 8 | 1015.0 |
| 20260902180106 | 80 | 90 | 6.0 | 9.0 | 0.00 | 0.00 | 0.00 | 8 | 1014.9 |
| 20260902175656 | 80 | 90 | 4.0 | 6.0 | 0.00 | 0.00 | 0.00 | 8 | 1015.0 |
| 20260902175409 | 80 | 112 | 6.0 | 8.0 | 0.00 | 0.00 | 0.00 | 8 | 1014.8 |
| 20260902175404 | 80 | 90 | 7.0 | 10.0 | 0.00 | 0.00 | 0.00 | 8 | 1014.9 |
| 20260902174909 | 80 | 90 | 6.0 | 10.0 | 0.00 | 0.00 | 0.00 | 8 | 1014.8 |
| 20260902174520 | 80 | 90 | 6.0 | 10.0 | 0.00 | 0.00 | 0.00 | 8 | 1014.9 |
| 20260902174436 | 80 | 67 | 8.0 | 11.0 | 0.00 | 0.00 | 0.00 | 8 | 1014.7 |
| 20260902174034 | 80 | 90 | 7.0 | 11.0 | 0.00 | 0.00 | 0.00 | 8 | 1014.8 |
| 20260902173649 | 80 | 112 | 9.0 | 13.0 | 0.00 | 0.00 | 0.00 | 8 | 1014.7 |
| 20260902173614 | 80 | 112 | 9.0 | 13.0 | 0.00 | 0.00 | 0.00 | 8 | 1014.7 |
| 20260902173149 | 81 | 90 | 9.0 | 11.0 | 0.00 | 0.00 | 0.00 | 8 | 1014.5 |
| 20260902172656 | 81 | 90 | 9.0 | 13.0 | 0.00 | 0.00 | 0.00 | 8 | 1014.8 |
| 20260902172654 | 81 | 90 | 9.0 | 13.0 | 0.00 | 0.00 | 0.00 | 8 | 1014.8 |
| 20260902172552 | 81 | 90 | 9.0 | 13.0 | 0.00 | 0.00 | 0.00 | 8 | 1014.8 |
| 20260902172056 | 81 | 112 | 9.0 | 13.0 | 0.00 | 0.00 | 0.00 | 8 | 1014.6 |
| 20260902171706 | 81 | 135 | 8.0 | 11.0 | 0.00 | 0.00 | 0.00 | 8 | 1014.5 |
| 20260902171608 | 81 | 90 | 9.0 | 13.0 | 0.00 | 0.00 | 0.00 | 8 | 1014.5 |
| 20260902171121 | 81 | 67 | 9.0 | 13.0 | 0.00 | 0.00 | 0.00 | 8 | 1014.6 |
| 20260902170741 | 81 | 112 | 8.0 | 12.0 | 0.00 | 0.00 | 0.00 | 8 | 1014.5 |
| 20260902170704 | 81 | 112 | 8.0 | 12.0 | 0.00 | 0.00 | 0.00 | 8 | 1014.5 |
| 20260902170239 | 81 | 67 | 10.0 | 15.0 | 0.00 | 0.00 | 0.00 | 8 | 1014.4 |
| 20260902165744 | 82 | 112 | 7.0 | 13.0 | 0.00 | 0.00 | 0.00 | 8 | 1014.5 |
| 20260902165408 | 82 | 67 | 12.0 | 15.0 | 0.00 | 0.00 | 0.00 | 8 | 1014.3 |
| 20260902164913 | 82 | 67 | 10.0 | 15.0 | 0.00 | 0.00 | 0.00 | 8 | 1014.5 |
| 20260902164440 | 82 | 135 | 10.0 | 15.0 | 0.00 | 0.00 | 0.00 | 8 | 1014.4 |
| 20260902164038 | 82 | 90 | 11.0 | 15.0 | 0.00 | 0.00 | 0.00 | 8 | 1014.3 |
| 20260902163618 | 82 | 90 | 12.0 | 15.0 | 0.00 | 0.00 | 0.00 | 8 | 1014.3 |
| 20260902163152 | 83 | 90 | 9.0 | 15.0 | 0.00 | 0.00 | 0.00 | 8 | 1014.4 |
| 20260902162658 | 82 | 90 | 10.0 | 15.0 | 0.00 | 0.00 | 0.00 | 8 | 1014.3 |
| 20260902162340 | 83 | 90 | 9.0 | 13.0 | 0.00 | 0.00 | 0.00 | 8 | 1014.3 |
| 20260902161906 | 83 | 67 | 9.0 | 15.0 | 0.00 | 0.00 | 0.00 | 8 | 1014.3 |
| 20260902161436 | 83 | 90 | 9.0 | 13.0 | 0.00 | 0.00 | 0.00 | 8 | 1014.3 |
| 20260902161002 | 83 | 90 | 9.0 | 12.0 | 0.00 | 0.00 | 0.00 | 8 | 1014.3 |
| 20260902160600 | 83 | 90 | 11.0 | 15.0 | 0.00 | 0.00 | 0.00 | 8 | 1014.4 |
| 20260902160117 | 83 | 90 | 9.0 | 15.0 | 0.00 | 0.00 | 0.00 | 8 | 1014.5 |
| 20260902155652 | 83 | 90 | 10.0 | 15.0 | 0.00 | 0.00 | 0.00 | 8 | 1014.3 |
| 20260902155356 | 83 | 135 | 11.0 | 17.0 | 0.00 | 0.00 | 0.00 | 8 | 1014.4 |
| 20260902154937 | 84 | 90 | 9.0 | 13.0 | 0.00 | 0.00 | 0.00 | 8 | 1014.4 |
| 20260902154551 | 83 | 112 | 12.0 | 15.0 | 0.00 | 0.00 | 0.00 | 8 | 1014.4 |
| 20260902154519 | 83 | 112 | 12.0 | 15.0 | 0.00 | 0.00 | 0.00 | 8 | 1014.4 |
| 20260902154034 | 84 | 67 | 10.0 | 13.0 | 0.00 | 0.00 | 0.00 | 8 | 1014.5 |
| 20260902153653 | 84 | 67 | 9.0 | 13.0 | 0.00 | 0.00 | 0.00 | 8 | 1014.5 |
| 20260902153617 | 84 | 67 | 9.0 | 13.0 | 0.00 | 0.00 | 0.00 | 8 | 1014.5 |
| 20260902153153 | 84 | 90 | 12.0 | 15.0 | 0.00 | 0.00 | 0.00 | 8 | 1014.5 |
| 20260902152659 | 84 | 90 | 9.0 | 15.0 | 0.00 | 0.00 | 0.00 | 8 | 1014.6 |
| 20260902152350 | 84 | 67 | 9.0 | 15.0 | 0.00 | 0.00 | 0.00 | 8 | 1014.7 |
| 20260902151931 | 84 | 90 | 9.0 | 13.0 | 0.00 | 0.00 | 0.00 | 8 | 1014.7 |
| 20260902151642 | 83 | 67 | 13.0 | 15.0 | 0.00 | 0.00 | 0.00 | 8 | 1014.5 |
| 20260902151512 | 83 | 67 | 13.0 | 15.0 | 0.00 | 0.00 | 0.00 | 8 | 1014.7 |
| 20260902151028 | 84 | 90 | 12.0 | 17.0 | 0.00 | 0.00 | 0.00 | 8 | 1014.5 |
| 20260902150644 | 84 | 90 | 10.0 | 17.0 | 0.00 | 0.00 | 0.00 | 8 | 1014.4 |
| 20260902150611 | 84 | 90 | 10.0 | 17.0 | 0.00 | 0.00 | 0.00 | 8 | 1014.4 |
| 20260902150146 | 84 | 90 | 8.0 | 11.0 | 0.00 | 0.00 | 0.00 | 8 | 1014.6 |
| 20260902145652 | 84 | 112 | 11.0 | 19.0 | 0.00 | 0.00 | 0.00 | 8 | 1014.6 |
| 20260902145311 | 84 | 90 | 12.0 | 18.0 | 0.00 | 0.00 | 0.00 | 7 | 1014.6 |
| 20260902145306 | 84 | 90 | 10.0 | 13.0 | 0.00 | 0.00 | 0.00 | 7 | 1014.5 |
| 20260902144850 | 84 | 112 | 12.0 | 17.0 | 0.00 | 0.00 | 0.00 | 8 | 1014.6 |
| 20260902144435 | 84 | 90 | 13.0 | 17.0 | 0.00 | 0.00 | 0.00 | 8 | 1014.7 |
| 20260902144006 | 84 | 112 | 11.0 | 15.0 | 0.00 | 0.00 | 0.00 | 7 | 1014.8 |
| 20260902143604 | 83 | 90 | 11.0 | 15.0 | 0.00 | 0.00 | 0.00 | 8 | 1014.9 |
| 20260902143547 | 84 | 90 | 10.0 | 19.0 | 0.00 | 0.00 | 0.00 | 7 | 1014.7 |
| 20260902143121 | 83 | 90 | 11.0 | 17.0 | 0.00 | 0.00 | 0.00 | 8 | 1014.8 |
| 20260902142657 | 84 | 112 | 11.0 | 15.0 | 0.00 | 0.00 | 0.00 | 7 | 1014.8 |
| 20260902142655 | 84 | 112 | 11.0 | 15.0 | 0.00 | 0.00 | 0.00 | 7 | 1014.8 |
| 20260902142314 | 84 | 67 | 9.0 | 17.0 | 0.00 | 0.00 | 0.00 | 7 | 1014.8 |
| 20260902142256 | 84 | 67 | 9.0 | 15.0 | 0.00 | 0.00 | 0.00 | 7 | 1014.8 |
| 20260902141843 | 84 | 90 | 13.0 | 20.0 | 0.00 | 0.00 | 0.00 | 7 | 1014.8 |
| 20260902141431 | 84 | 90 | 9.0 | 12.0 | 0.00 | 0.00 | 0.00 | 7 | 1014.8 |
| 20260902141000 | 84 | 112 | 9.0 | 12.0 | 0.00 | 0.00 | 0.00 | 7 | 1014.9 |
| 20260902140542 | 85 | 90 | 7.0 | 11.0 | 0.00 | 0.00 | 0.00 | 7 | 1015.0 |
| 20260902140115 | 84 | 90 | 9.0 | 11.0 | 0.00 | 0.00 | 0.00 | 7 | 1015.1 |
| 20260902135652 | 83 | 90 | 10.0 | 15.0 | 0.00 | 0.00 | 0.00 | 7 | 1015.1 |
| 20260902135354 | 83 | 90 | 15.0 | 19.0 | 0.00 | 0.00 | 0.00 | 7 | 1015.1 |
| 20260902134904 | 84 | 112 | 9.0 | 12.0 | 0.00 | 0.00 | 0.00 | 7 | 1015.1 |
| 20260902134441 | 84 | 90 | 11.0 | 15.0 | 0.00 | 0.00 | 0.00 | 7 | 1015.1 |
| 20260902134016 | 85 | 112 | 9.0 | 15.0 | 0.00 | 0.00 | 0.00 | 7 | 1015.3 |
| 20260902133604 | 84 | 67 | 11.0 | 15.0 | 0.00 | 0.00 | 0.00 | 7 | 1015.3 |
| 20260902133156 | 84 | 67 | 10.0 | 15.0 | 0.00 | 0.00 | 0.00 | 7 | 1015.4 |
| 20260902132704 | 84 | 90 | 11.0 | 13.0 | 0.00 | 0.00 | 0.00 | 7 | 1015.4 |
| 20260902132249 | 85 | 112 | 9.0 | 12.0 | 0.00 | 0.00 | 0.00 | 7 | 1015.4 |
| 20260902132214 | 85 | 112 | 9.0 | 12.0 | 0.00 | 0.00 | 0.00 | 7 | 1015.4 |
| 20260902131811 | 84 | 90 | 12.0 | 15.0 | 0.00 | 0.00 | 0.00 | 7 | 1015.5 |
| 20260902131406 | 84 | 90 | 9.0 | 13.0 | 0.00 | 0.00 | 0.00 | 7 | 1015.5 |
| 20260902131251 | 84 | 112 | 9.0 | 15.0 | 0.00 | 0.00 | 0.00 | 7 | 1015.4 |
| 20260902130948 | 84 | 67 | 11.0 | 15.0 | 0.00 | 0.00 | 0.00 | 7 | 1015.6 |
| 20260902130425 | 84 | 112 | 7.0 | 10.0 | 0.00 | 0.00 | 0.00 | 7 | 1015.5 |
| 20260902130017 | 84 | 90 | 9.0 | 13.0 | 0.00 | 0.00 | 0.00 | 7 | 1015.6 |
| 20260902125611 | 84 | 135 | 10.0 | 15.0 | 0.00 | 0.00 | 0.00 | 7 | 1015.6 |
| 20260902125416 | 84 | 67 | 12.0 | 15.0 | 0.00 | 0.00 | 0.00 | 7 | 1015.7 |
| 20260902124943 | 84 | 67 | 12.0 | 15.0 | 0.00 | 0.00 | 0.00 | 7 | 1015.6 |
| 20260902124535 | 84 | 112 | 9.0 | 15.0 | 0.00 | 0.00 | 0.00 | 7 | 1015.4 |
| 20260902124133 | 84 | 112 | 10.0 | 15.0 | 0.00 | 0.00 | 0.00 | 7 | 1015.6 |
| 20260902124013 | 84 | 112 | 10.0 | 15.0 | 0.00 | 0.00 | 0.00 | 7 | 1015.7 |
| 20260902123732 | 84 | 67 | 10.0 | 15.0 | 0.00 | 0.00 | 0.00 | 7 | 1015.8 |
| 20260902123321 | 84 | 112 | 9.0 | 12.0 | 0.00 | 0.00 | 0.00 | 7 | 1015.8 |
| 20260902123125 | 84 | 112 | 9.0 | 12.0 | 0.00 | 0.00 | 0.00 | 7 | 1015.8 |
| 20260902122847 | 84 | 67 | 6.0 | 10.0 | 0.00 | 0.00 | 0.00 | 7 | 1015.7 |
| 20260902122419 | 84 | 90 | 10.0 | 13.0 | 0.00 | 0.00 | 0.00 | 7 | 1015.7 |
| 20260902122305 | 84 | 67 | 9.0 | 15.0 | 0.00 | 0.00 | 0.00 | 7 | 1015.6 |
| 20260902122006 | 84 | 90 | 12.0 | 17.0 | 0.00 | 0.00 | 0.00 | 7 | 1015.7 |
| 20260902121510 | 84 | 90 | 12.0 | 17.0 | 0.00 | 0.00 | 0.00 | 7 | 1015.8 |
| 20260902121437 | 84 | 67 | 10.0 | 13.0 | 0.00 | 0.00 | 0.00 | 7 | 1016.0 |
| 20260902121043 | 0 | 0 | 0.0 | 0.0 | 0.00 | 0.00 | 0.00 | 100 | |
| 20260902120605 | 83 | 112 | 11.0 | 15.0 | 0.00 | 0.00 | 0.00 | 8 | 1015.8 |
| 20260902120547 | 83 | 112 | 11.0 | 15.0 | 0.00 | 0.00 | 0.00 | 8 | 1015.9 |
| 20260902120122 | 83 | 112 | 11.0 | 15.0 | 0.00 | 0.00 | 0.00 | 8 | 1016.1 |
| 20260902115658 | 83 | 112 | 11.0 | 15.0 | 0.00 | 0.00 | 0.00 | 8 | 1015.9 |
| 20260902115656 | 83 | 112 | 11.0 | 15.0 | 0.00 | 0.00 | 0.00 | 8 | 1015.9 |
| 20260902115529 | 83 | 112 | 11.0 | 15.0 | 0.00 | 0.00 | 0.00 | 8 | 1015.9 |
| 20260902115103 | 83 | 67 | 11.0 | 15.0 | 0.00 | 0.00 | 0.00 | 8 | 1015.9 |
| 20260902114617 | 83 | 90 | 11.0 | 15.0 | 0.00 | 0.00 | 0.00 | 7 | 1016.0 |
| 20260902114144 | 83 | 90 | 10.0 | 17.0 | 0.00 | 0.00 | 0.00 | 8 | 1016.1 |
| 20260902113655 | 84 | 90 | 8.0 | 11.0 | 0.00 | 0.00 | 0.00 | 7 | 1016.0 |
| 20260902113207 | 84 | 112 | 9.0 | 11.0 | 0.00 | 0.00 | 0.00 | 7 | 1016.1 |
| 20260902112753 | 84 | 67 | 7.0 | 11.0 | 0.00 | 0.00 | 0.00 | 7 | 1016.0 |
| 20260902112407 | 83 | 90 | 10.0 | 13.0 | 0.00 | 0.00 | 0.00 | 7 | 1015.9 |
| 20260902111914 | 84 | 67 | 11.0 | 15.0 | 0.00 | 0.00 | 0.00 | 7 | 1016.0 |
| 20260902111437 | 84 | 112 | 9.0 | 13.0 | 0.00 | 0.00 | 0.00 | 7 | 1016.0 |
| 20260902111006 | 83 | 112 | 10.0 | 15.0 | 0.00 | 0.00 | 0.00 | 7 | 1016.2 |
| 20260902110547 | 83 | 67 | 9.0 | 11.0 | 0.00 | 0.00 | 0.00 | 7 | 1016.0 |
| 20260902110121 | 83 | 67 | 8.0 | 11.0 | 0.00 | 0.00 | 0.00 | 7 | 1016.1 |
| 20260902105657 | 82 | 67 | 10.0 | 13.0 | 0.00 | 0.00 | 0.00 | 8 | 1016.2 |
| 20260902105416 | 83 | 67 | 9.0 | 12.0 | 0.00 | 0.00 | 0.00 | 7 | 1016.1 |
| 20260902105008 | 83 | 90 | 9.0 | 11.0 | 0.00 | 0.00 | 0.00 | 7 | 1016.0 |
| 20260902104530 | 82 | 90 | 10.0 | 15.0 | 0.00 | 0.00 | 0.00 | 7 | 1016.1 |
| 20260902104059 | 83 | 90 | 9.0 | 12.0 | 0.00 | 0.00 | 0.00 | 7 | 1016.0 |
| 20260902103657 | 83 | 67 | 9.0 | 12.0 | 0.00 | 0.00 | 0.00 | 7 | 1016.2 |
| 20260902103640 | 83 | 67 | 9.0 | 12.0 | 0.00 | 0.00 | 0.00 | 7 | 1016.2 |
| 20260902103214 | 83 | 67 | 7.0 | 9.0 | 0.00 | 0.00 | 0.00 | 7 | 1016.2 |
| 20260902102751 | 83 | 90 | 9.0 | 12.0 | 0.00 | 0.00 | 0.00 | 7 | 1016.2 |
| 20260902102255 | 83 | 67 | 7.0 | 10.0 | 0.00 | 0.00 | 0.00 | 7 | 1016.2 |
| 20260902101851 | 83 | 67 | 9.0 | 11.0 | 0.00 | 0.00 | 0.00 | 7 | 1016.3 |
| 20260902101437 | 83 | 90 | 5.0 | 6.0 | 0.00 | 0.00 | 0.00 | 7 | 1016.2 |
| 20260902101006 | 82 | 67 | 7.0 | 10.0 | 0.00 | 0.00 | 0.00 | 7 | 1016.3 |
| 20260902100604 | 83 | 90 | 7.0 | 11.0 | 0.00 | 0.00 | 0.00 | 7 | 1016.3 |
| 20260902100547 | 83 | 67 | 3.0 | 6.0 | 0.00 | 0.00 | 0.00 | 7 | 1016.4 |
| 20260902100121 | 83 | 112 | 9.0 | 12.0 | 0.00 | 0.00 | 0.00 | 7 | 1016.3 |
| 20260902095657 | 83 | 90 | 7.0 | 12.0 | 0.00 | 0.00 | 0.00 | 7 | 1016.2 |
| 20260902095344 | 82 | 90 | 9.0 | 12.0 | 0.00 | 0.00 | 0.00 | 7 | 1016.2 |
| 20260902094926 | 83 | 112 | 8.0 | 12.0 | 0.00 | 0.00 | 0.00 | 7 | 1016.1 |
| 20260902094505 | 83 | 90 | 6.0 | 10.0 | 0.00 | 0.00 | 0.00 | 7 | 1016.3 |
| 20260902094040 | 82 | 90 | 5.0 | 8.0 | 0.00 | 0.00 | 0.00 | 7 | 1016.2 |
| 20260902093610 | 82 | 90 | 9.0 | 11.0 | 0.00 | 0.00 | 0.00 | 7 | 1016.1 |
| 20260902093125 | 82 | 67 | 6.0 | 8.0 | 0.00 | 0.00 | 0.00 | 7 | 1016.2 |
| 20260902092700 | 82 | 90 | 7.0 | 9.0 | 0.00 | 0.00 | 0.00 | 7 | 1016.2 |
| 20260902092248 | 82 | 90 | 6.0 | 9.0 | 0.00 | 0.00 | 0.00 | 7 | 1016.0 |
| 20260902091811 | 83 | 112 | 2.0 | 3.0 | 0.00 | 0.00 | 0.00 | 7 | 1016.1 |
| 20260902091339 | 82 | 112 | 3.0 | 4.0 | 0.00 | 0.00 | 0.00 | 8 | 1016.1 |
| 20260902090936 | 82 | 22 | 5.0 | 8.0 | 0.00 | 0.00 | 0.00 | 8 | 1016.1 |
| 20260902090526 | 82 | 67 | 4.0 | 8.0 | 0.00 | 0.00 | 0.00 | 8 | 1016.1 |
| 20260902090110 | 81 | 112 | 3.0 | 6.0 | 0.00 | 0.00 | 0.00 | 8 | 1016.3 |
| 20260902085700 | 81 | 67 | 4.0 | 6.0 | 0.00 | 0.00 | 0.00 | 8 | 1016.2 |
| 20260902085659 | 81 | 67 | 4.0 | 6.0 | 0.00 | 0.00 | 0.00 | 8 | 1016.2 |
| 20260902085508 | 80 | 67 | 6.0 | 8.0 | 0.00 | 0.00 | 0.00 | 8 | 1016.1 |
| 20260902085306 | 80 | 112 | 6.0 | 9.0 | 0.00 | 0.00 | 0.00 | 8 | 1016.2 |
| 20260902085009 | 80 | 90 | 7.0 | 10.0 | 0.00 | 0.00 | 0.00 | 8 | 1016.1 |
| 20260902084532 | 80 | 90 | 8.0 | 11.0 | 0.00 | 0.00 | 0.00 | 8 | 1016.1 |
| 20260902084400 | 80 | 90 | 5.0 | 6.0 | 0.00 | 0.00 | 0.00 | 8 | 1016.3 |
| 20260902084054 | 80 | 112 | 6.0 | 9.0 | 0.00 | 0.00 | 0.00 | 8 | 1016.4 |
| 20260902083611 | 80 | 112 | 3.0 | 4.0 | 0.00 | 0.00 | 0.00 | 8 | 1016.3 |
| 20260902083532 | 81 | 90 | 3.0 | 6.0 | 0.00 | 0.00 | 0.00 | 8 | 1016.2 |
| 20260902083118 | 80 | 112 | 6.0 | 8.0 | 0.00 | 0.00 | 0.00 | 8 | 1016.1 |
| 20260902082706 | 80 | 90 | 3.0 | 4.0 | 0.00 | 0.00 | 0.00 | 8 | 1016.1 |
| 20260902082504 | 80 | 112 | 3.0 | 4.0 | 0.00 | 0.00 | 0.00 | 8 | 1016.1 |
| 20260902082432 | 80 | 112 | 3.0 | 4.0 | 0.00 | 0.00 | 0.00 | 8 | 1016.1 |
| 20260902081936 | 80 | 90 | 2.0 | 3.0 | 0.00 | 0.00 | 0.00 | 8 | 1015.8 |
| 20260902081519 | 80 | 0 | 0.0 | 1.0 | 0.00 | 0.00 | 0.00 | 8 | 1015.9 |
| 20260902081034 | 79 | 0 | 0.0 | 1.0 | 0.00 | 0.00 | 0.00 | 8 | 1015.9 |
| 20260902080650 | 78 | 270 | 1.0 | 2.0 | 0.00 | 0.00 | 0.00 | 8 | 1015.7 |
| 20260902080617 | 78 | 270 | 1.0 | 2.0 | 0.00 | 0.00 | 0.00 | 8 | 1015.7 |
| 20260902080152 | 78 | 292 | 1.0 | 2.0 | 0.00 | 0.00 | 0.00 | 8 | 1015.7 |
| 20260902075659 | 77 | 0 | 0.0 | 1.0 | 0.00 | 0.00 | 0.00 | 8 | 1015.8 |
| 20260902075657 | 77 | 0 | 0.0 | 1.0 | 0.00 | 0.00 | 0.00 | 8 | 1015.8 |
| 20260902075429 | 77 | 0 | 0.0 | 1.0 | 0.00 | 0.00 | 0.00 | 8 | 1015.7 |
| 20260902074932 | 77 | 270 | 1.0 | 2.0 | 0.00 | 0.00 | 0.00 | 8 | 1015.7 |
| 20260902074514 | 77 | 0 | 0.0 | 0.0 | 0.00 | 0.00 | 0.00 | 8 | 1015.6 |
| 20260902074031 | 77 | 270 | 0.0 | 1.0 | 0.00 | 0.00 | 0.00 | 8 | 1015.7 |
| 20260902073614 | 77 | 270 | 0.0 | 1.0 | 0.00 | 0.00 | 0.00 | 8 | 1015.7 |
| 20260902073148 | 76 | 0 | 0.0 | 1.0 | 0.00 | 0.00 | 0.00 | 8 | 1015.6 |
| 20260902072654 | 77 | 0 | 0.0 | 1.0 | 0.00 | 0.00 | 0.00 | 8 | 1015.6 |
| 20260902072556 | 77 | 0 | 0.0 | 1.0 | 0.00 | 0.00 | 0.00 | 8 | 1015.6 |
| 20260902072317 | 77 | 0 | 0.0 | 0.0 | 0.00 | 0.00 | 0.00 | 8 | 1015.5 |
| 20260902071905 | 76 | 0 | 0.0 | 1.0 | 0.00 | 0.00 | 0.00 | 8 | 1015.4 |
| 20260902071621 | 76 | 270 | 0.0 | 1.0 | 0.00 | 0.00 | 0.00 | 9 | 1015.4 |
| 20260902071451 | 75 | 292 | 0.0 | 1.0 | 0.00 | 0.00 | 0.00 | 9 | 1015.4 |
| 20260902071008 | 75 | 292 | 0.0 | 1.0 | 0.00 | 0.00 | 0.00 | 9 | 1015.4 |
| 20260902070621 | 74 | 292 | 1.0 | 2.0 | 0.00 | 0.00 | 0.00 | 9 | 1015.4 |
| 20260902070549 | 73 | 292 | 2.0 | 2.0 | 0.00 | 0.00 | 0.00 | 9 | 1015.5 |
| 20260902070124 | 73 | 292 | 2.0 | 2.0 | 0.00 | 0.00 | 0.00 | 9 | 1015.5 |
| 20260902065630 | 73 | 292 | 1.0 | 2.0 | 0.00 | 0.00 | 0.00 | 9 | 1015.3 |
| 20260902065418 | 73 | 292 | 1.0 | 2.0 | 0.00 | 0.00 | 0.00 | 9 | 1015.3 |
| 20260902064955 | 72 | 292 | 1.0 | 2.0 | 0.00 | 0.00 | 0.00 | 9 | 1015.2 |
| 20260902064530 | 72 | 292 | 0.0 | 1.0 | 0.00 | 0.00 | 0.00 | 9 | 1015.3 |
| 20260902064055 | 72 | 292 | 2.0 | 2.0 | 0.00 | 0.00 | 0.00 | 9 | 1015.2 |
| 20260902063653 | 72 | 270 | 1.0 | 2.0 | 0.00 | 0.00 | 0.00 | 9 | 1015.0 |
| 20260902063210 | 72 | 270 | 1.0 | 2.0 | 0.00 | 0.00 | 0.00 | 9 | 1015.1 |
| 20260902062745 | 72 | 270 | 1.0 | 2.0 | 0.00 | 0.00 | 0.00 | 9 | 1014.9 |
| 20260902062309 | 72 | 315 | 0.0 | 2.0 | 0.00 | 0.00 | 0.00 | 9 | 1014.9 |
| 20260902061856 | 72 | 315 | 2.0 | 2.0 | 0.00 | 0.00 | 0.00 | 9 | 1015.0 |
| 20260902061443 | 72 | 315 | 1.0 | 2.0 | 0.00 | 0.00 | 0.00 | 9 | 1015.0 |
| 20260902060957 | 72 | 292 | 0.0 | 1.0 | 0.00 | 0.00 | 0.00 | 9 | 1014.9 |
| 20260902060541 | 71 | 292 | 2.0 | 3.0 | 0.00 | 0.00 | 0.00 | 9 | 1014.8 |
| 20260902060116 | 71 | 270 | 3.0 | 4.0 | 0.00 | 0.00 | 0.00 | 9 | 1014.8 |
| 20260902055621 | 71 | 270 | 2.0 | 3.0 | 0.00 | 0.00 | 0.00 | 9 | 1014.7 |
| 20260902055241 | 71 | 270 | 2.0 | 3.0 | 0.00 | 0.00 | 0.00 | 9 | 1014.8 |
| 20260902054802 | 71 | 270 | 3.0 | 3.0 | 0.00 | 0.00 | 0.00 | 9 | 1014.7 |
| 20260902054337 | 71 | 270 | 2.0 | 3.0 | 0.00 | 0.00 | 0.00 | 9 | 1014.7 |
| 20260902053914 | 71 | 292 | 2.0 | 3.0 | 0.00 | 0.00 | 0.00 | 9 | 1015.0 |
| 20260902053451 | 71 | 270 | 1.0 | 2.0 | 0.00 | 0.00 | 0.00 | 9 | 1014.9 |
| 20260902053042 | 71 | 292 | 1.0 | 2.0 | 0.00 | 0.00 | 0.00 | 9 | 1014.8 |
| 20260902052633 | 70 | 292 | 1.0 | 2.0 | 0.00 | 0.00 | 0.00 | 9 | 1014.6 |
| 20260902052256 | 70 | 292 | 1.0 | 2.0 | 0.00 | 0.00 | 0.00 | 9 | 1014.6 |
| 20260902051805 | 71 | 315 | 2.0 | 2.0 | 0.00 | 0.00 | 0.00 | 9 | 1014.7 |
| 20260902051355 | 71 | 292 | 2.0 | 2.0 | 0.00 | 0.00 | 0.00 | 9 | 1014.5 |
| 20260902050936 | 71 | 292 | 1.0 | 2.0 | 0.00 | 0.00 | 0.00 | 9 | 1014.5 |
| 20260902050904 | 71 | 292 | 1.0 | 2.0 | 0.00 | 0.00 | 0.00 | 9 | 1014.5 |
| 20260902050413 | 71 | 315 | 1.0 | 2.0 | 0.00 | 0.00 | 0.00 | 9 | 1014.5 |
| 20260902050028 | 71 | 292 | 1.0 | 2.0 | 0.00 | 0.00 | 0.00 | 9 | 1014.5 |
| 20260902045943 | 71 | 292 | 1.0 | 2.0 | 0.00 | 0.00 | 0.00 | 9 | 1014.5 |
| 20260902045524 | 71 | 225 | 1.0 | 1.0 | 0.00 | 0.00 | 0.00 | 9 | 1014.6 |
| 20260902045120 | 71 | 247 | 0.0 | 2.0 | 0.00 | 0.00 | 0.00 | 9 | 1014.5 |
| 20260902045043 | 71 | 247 | 0.0 | 2.0 | 0.00 | 0.00 | 0.00 | 9 | 1014.5 |
| 20260902044650 | 0 | 0 | 0.0 | 0.0 | 0.00 | 0.00 | 0.00 | 100 | |
| 20260902044207 | 0 | 0 | 0.0 | 0.0 | 0.00 | 0.00 | 0.00 | 100 | |
| 20260902043750 | 0 | 0 | 0.0 | 0.0 | 0.00 | 0.00 | 0.00 | 100 | |
| 20260902043330 | 0 | 0 | 0.0 | 0.0 | 0.00 | 0.00 | 0.00 | 100 | |
| 20260902043249 | 0 | 0 | 0.0 | 0.0 | 0.00 | 0.00 | 0.00 | 100 | |
| 20260902042835 | 0 | 0 | 0.0 | 0.0 | 0.00 | 0.00 | 0.00 | 100 | |
| 20260902042404 | 0 | 0 | 0.0 | 0.0 | 0.00 | 0.00 | 0.00 | 100 | |
| 20260902041913 | 0 | 0 | 0.0 | 0.0 | 0.00 | 0.00 | 0.00 | 100 | |
| 20260902041556 | 0 | 0 | 0.0 | 0.0 | 0.00 | 0.00 | 0.00 | 100 | |
| 20260902041431 | 0 | 0 | 0.0 | 0.0 | 0.00 | 0.00 | 0.00 | 100 | |
| 20260902041012 | 71 | 292 | 1.0 | 2.0 | 0.00 | 0.00 | 0.00 | 9 | 1014.3 |
| 20260902040610 | 71 | 292 | 1.0 | 2.0 | 0.00 | 0.00 | 0.00 | 9 | 1014.2 |
| 20260902040558 | 71 | 292 | 1.0 | 2.0 | 0.00 | 0.00 | 0.00 | 9 | 1014.3 |
| 20260902040126 | 71 | 292 | 1.0 | 2.0 | 0.00 | 0.00 | 0.00 | 9 | 1014.3 |
| 20260902035701 | 71 | 315 | 2.0 | 2.0 | 0.00 | 0.00 | 0.00 | 9 | 1014.4 |
| 20260902035212 | 71 | 292 | 1.0 | 2.0 | 0.00 | 0.00 | 0.00 | 9 | 1014.4 |
| 20260902034722 | 71 | 292 | 0.0 | 1.0 | 0.00 | 0.00 | 0.00 | 9 | 1014.2 |
| 20260902034249 | 71 | 292 | 2.0 | 2.0 | 0.00 | 0.00 | 0.00 | 9 | 1014.4 |
| 20260902033841 | 71 | 292 | 2.0 | 3.0 | 0.00 | 0.00 | 0.00 | 9 | 1014.4 |
| 20260902033353 | 72 | 247 | 2.0 | 3.0 | 0.00 | 0.00 | 0.00 | 9 | 1014.4 |
| 20260902032854 | 0 | 0 | 0.0 | 0.0 | 0.00 | 0.00 | 0.00 | 100 | |
| 20260902032506 | 0 | 0 | 0.0 | 0.0 | 0.00 | 0.00 | 0.00 | 100 | |
| 20260902032357 | 72 | 0 | 0.0 | 0.0 | 0.00 | 0.00 | 0.00 | 9 | 1014.4 |
| 20260902031939 | 72 | 0 | 0.0 | 0.0 | 0.00 | 0.00 | 0.00 | 9 | 1014.5 |
| 20260902031519 | 72 | 0 | 0.0 | 0.0 | 0.00 | 0.00 | 0.00 | 9 | 1014.5 |
| 20260902031035 | 71 | 0 | 0.0 | 0.0 | 0.00 | 0.00 | 0.00 | 9 | 1014.5 |
| 20260902030652 | 71 | 0 | 0.0 | 0.0 | 0.00 | 0.00 | 0.00 | 9 | 1014.5 |
| 20260902030619 | 71 | 0 | 0.0 | 0.0 | 0.00 | 0.00 | 0.00 | 9 | 1014.5 |
| 20260902030154 | 72 | 270 | 1.0 | 2.0 | 0.00 | 0.00 | 0.00 | 9 | 1014.6 |
| 20260902025701 | 72 | 270 | 3.0 | 3.0 | 0.00 | 0.00 | 0.00 | 9 | 1014.6 |
| 20260902025659 | 72 | 270 | 3.0 | 3.0 | 0.00 | 0.00 | 0.00 | 9 | 1014.6 |
| 20260902025359 | 72 | 270 | 3.0 | 3.0 | 0.00 | 0.00 | 0.00 | 9 | 1014.6 |
| 20260902024958 | 72 | 270 | 3.0 | 3.0 | 0.00 | 0.00 | 0.00 | 9 | 1014.6 |
| 20260902024528 | 72 | 225 | 1.0 | 2.0 | 0.00 | 0.00 | 0.00 | 9 | 1014.7 |
| 20260902024124 | 72 | 247 | 2.0 | 2.0 | 0.00 | 0.00 | 0.00 | 9 | 1014.8 |
| 20260902023704 | 73 | 270 | 1.0 | 2.0 | 0.00 | 0.00 | 0.00 | 9 | 1014.6 |
| 20260902023239 | 73 | 292 | 0.0 | 1.0 | 0.00 | 0.00 | 0.00 | 9 | 1014.7 |
| 20260902022744 | 72 | 292 | 2.0 | 2.0 | 0.00 | 0.00 | 0.00 | 9 | 1014.8 |
| 20260902022419 | 72 | 292 | 1.0 | 2.0 | 0.00 | 0.00 | 0.00 | 9 | 1014.6 |
| 20260902021956 | 72 | 270 | 2.0 | 3.0 | 0.00 | 0.00 | 0.00 | 9 | 1014.7 |
| 20260902021508 | 72 | 270 | 2.0 | 2.0 | 0.00 | 0.00 | 0.00 | 9 | 1014.6 |
| 20260902021019 | 72 | 270 | 1.0 | 1.0 | 0.00 | 0.00 | 0.00 | 9 | 1014.5 |
| 20260902020616 | 72 | 270 | 1.0 | 2.0 | 0.00 | 0.00 | 0.00 | 9 | 1014.5 |
| 20260902020124 | 72 | 292 | 2.0 | 3.0 | 0.00 | 0.00 | 0.00 | 9 | 1014.6 |
| 20260902015659 | 73 | 270 | 2.0 | 3.0 | 0.00 | 0.00 | 0.00 | 9 | 1014.5 |
| 20260902015356 | 73 | 270 | 2.0 | 3.0 | 0.00 | 0.00 | 0.00 | 9 | 1014.5 |
| 20260902015321 | 73 | 270 | 2.0 | 3.0 | 0.00 | 0.00 | 0.00 | 9 | 1014.5 |
| 20260902014924 | 73 | 247 | 2.0 | 2.0 | 0.00 | 0.00 | 0.00 | 9 | 1014.5 |
| 20260902014435 | 73 | 292 | 2.0 | 3.0 | 0.00 | 0.00 | 0.00 | 9 | 1014.6 |
| 20260902014034 | 74 | 270 | 1.0 | 2.0 | 0.00 | 0.00 | 0.00 | 9 | 1014.5 |
| 20260902013547 | 73 | 292 | 1.0 | 2.0 | 0.00 | 0.00 | 0.00 | 9 | 1014.8 |
| 20260902013119 | 73 | 270 | 2.0 | 2.0 | 0.00 | 0.00 | 0.00 | 9 | 1014.6 |
| 20260902012655 | 74 | 292 | 2.0 | 2.0 | 0.00 | 0.00 | 0.00 | 9 | 1014.8 |
| 20260902012316 | 74 | 292 | 2.0 | 2.0 | 0.00 | 0.00 | 0.00 | 9 | 1014.8 |
| 20260902012309 | 74 | 292 | 2.0 | 3.0 | 0.00 | 0.00 | 0.00 | 9 | 1015.0 |
| 20260902011853 | 74 | 292 | 2.0 | 2.0 | 0.00 | 0.00 | 0.00 | 9 | 1015.0 |
| 20260902011438 | 73 | 292 | 3.0 | 3.0 | 0.00 | 0.00 | 0.00 | 9 | 1014.9 |
| 20260902011009 | 73 | 270 | 2.0 | 3.0 | 0.00 | 0.00 | 0.00 | 9 | 1015.0 |
| 20260902010608 | 73 | 270 | 3.0 | 3.0 | 0.00 | 0.00 | 0.00 | 9 | 1015.0 |
| 20260902010551 | 73 | 292 | 2.0 | 3.0 | 0.00 | 0.00 | 0.00 | 9 | 1014.8 |
| 20260902010124 | 73 | 292 | 1.0 | 2.0 | 0.00 | 0.00 | 0.00 | 9 | 1014.9 |
| 20260902005702 | 73 | 292 | 2.0 | 3.0 | 0.00 | 0.00 | 0.00 | 9 | 1014.8 |
| 20260902005659 | 73 | 292 | 2.0 | 3.0 | 0.00 | 0.00 | 0.00 | 9 | 1014.8 |
| 20260902005426 | 73 | 315 | 2.0 | 2.0 | 0.00 | 0.00 | 0.00 | 9 | 1014.8 |
| 20260902005320 | 73 | 315 | 2.0 | 3.0 | 0.00 | 0.00 | 0.00 | 9 | 1014.8 |
| 20260902004949 | 73 | 292 | 3.0 | 4.0 | 0.00 | 0.00 | 0.00 | 9 | 1014.8 |
| 20260902004508 | 73 | 292 | 3.0 | 4.0 | 0.00 | 0.00 | 0.00 | 9 | 1014.9 |
| 20260902004435 | 73 | 292 | 3.0 | 6.0 | 0.00 | 0.00 | 0.00 | 9 | 1014.8 |
| 20260902004042 | 73 | 292 | 3.0 | 6.0 | 0.00 | 0.00 | 0.00 | 9 | 1014.9 |
| 20260902003603 | 73 | 292 | 3.0 | 4.0 | 0.00 | 0.00 | 0.00 | 9 | 1014.8 |
| 20260902003546 | 73 | 292 | 3.0 | 4.0 | 0.00 | 0.00 | 0.00 | 9 | 1014.9 |
| 20260902003119 | 73 | 292 | 3.0 | 4.0 | 0.00 | 0.00 | 0.00 | 9 | 1014.9 |
| 20260902002656 | 73 | 292 | 3.0 | 3.0 | 0.00 | 0.00 | 0.00 | 9 | 1015.0 |
| 20260902002654 | 73 | 292 | 3.0 | 3.0 | 0.00 | 0.00 | 0.00 | 9 | 1015.0 |
| 20260902002442 | 74 | 292 | 3.0 | 3.0 | 0.00 | 0.00 | 0.00 | 9 | 1015.0 |
| 20260902001946 | 74 | 292 | 3.0 | 6.0 | 0.00 | 0.00 | 0.00 | 9 | 1014.9 |
| 20260902001503 | 74 | 292 | 3.0 | 3.0 | 0.00 | 0.00 | 0.00 | 9 | 1014.9 |
| 20260902001039 | 74 | 292 | 3.0 | 4.0 | 0.00 | 0.00 | 0.00 | 9 | 1015.0 |
| 20260902000609 | 74 | 292 | 3.0 | 4.0 | 0.00 | 0.00 | 0.00 | 9 | 1014.9 |
| 20260902000124 | 74 | 292 | 3.0 | 3.0 | 0.00 | 0.00 | 0.00 | 9 | 1015.0 |
| 20260901235659 | 74 | 315 | 3.0 | 4.0 | 0.00 | 0.00 | 0.00 | 9 | 1015.0 |
| 20260901235454 | 74 | 315 | 3.0 | 4.0 | 0.00 | 0.00 | 0.00 | 9 | 1015.0 |
| 20260901235052 | 73 | 292 | 3.0 | 3.0 | 0.00 | 0.00 | 0.00 | 9 | 1014.9 |
| 20260901234632 | 73 | 292 | 3.0 | 3.0 | 0.00 | 0.00 | 0.00 | 9 | 1015.1 |
| 20260901234140 | 73 | 292 | 2.0 | 3.0 | 0.00 | 0.00 | 0.00 | 9 | 1015.0 |
| 20260901233649 | 73 | 292 | 2.0 | 2.0 | 0.00 | 0.00 | 0.00 | 9 | 1015.0 |
| 20260901233202 | 73 | 292 | 2.0 | 2.0 | 0.00 | 0.00 | 0.00 | 9 | 1014.9 |
| 20260901232751 | 73 | 292 | 1.0 | 2.0 | 0.00 | 0.00 | 0.00 | 9 | 1015.0 |
| 20260901232454 | 73 | 292 | 1.0 | 2.0 | 0.00 | 0.00 | 0.00 | 9 | 1014.9 |
| 20260901232411 | 73 | 292 | 1.0 | 2.0 | 0.00 | 0.00 | 0.00 | 9 | 1014.9 |
| 20260901231918 | 73 | 292 | 2.0 | 2.0 | 0.00 | 0.00 | 0.00 | 9 | 1015.0 |
| 20260901231507 | 73 | 292 | 2.0 | 2.0 | 0.00 | 0.00 | 0.00 | 9 | 1015.0 |
| 20260901231443 | 73 | 292 | 1.0 | 2.0 | 0.00 | 0.00 | 0.00 | 9 | 1015.0 |
| 20260901231018 | 73 | 292 | 2.0 | 2.0 | 0.00 | 0.00 | 0.00 | 9 | 1015.0 |
| 20260901230649 | 73 | 292 | 2.0 | 3.0 | 0.00 | 0.00 | 0.00 | 9 | 1015.1 |
| 20260901230603 | 73 | 292 | 2.0 | 3.0 | 0.00 | 0.00 | 0.00 | 9 | 1015.1 |
| 20260901230155 | 73 | 292 | 2.0 | 2.0 | 0.00 | 0.00 | 0.00 | 9 | 1015.1 |
| 20260901225703 | 74 | 292 | 2.0 | 2.0 | 0.00 | 0.00 | 0.00 | 9 | 1015.0 |
| 20260901225420 | 74 | 292 | 1.0 | 2.0 | 0.00 | 0.00 | 0.00 | 9 | 1015.1 |
| 20260901224932 | 74 | 0 | 0.0 | 0.0 | 0.00 | 0.00 | 0.00 | 9 | 1014.9 |
| 20260901224510 | 73 | 0 | 0.0 | 2.0 | 0.00 | 0.00 | 0.00 | 9 | 1015.0 |
| 20260901224044 | 74 | 0 | 0.0 | 1.0 | 0.00 | 0.00 | 0.00 | 9 | 1014.9 |
| 20260901223610 | 74 | 0 | 0.0 | 0.0 | 0.00 | 0.00 | 0.00 | 9 | 1014.9 |
| 20260901223552 | 74 | 0 | 0.0 | 0.0 | 0.00 | 0.00 | 0.00 | 9 | 1014.9 |
| 20260901223142 | 74 | 0 | 0.0 | 0.0 | 0.00 | 0.00 | 0.00 | 9 | 1014.9 |
| 20260901222735 | 74 | 315 | 0.0 | 1.0 | 0.00 | 0.00 | 0.00 | 9 | 1014.9 |
| 20260901222401 | 74 | 292 | 1.0 | 2.0 | 0.00 | 0.00 | 0.00 | 9 | 1014.9 |
| 20260901221910 | 74 | 292 | 3.0 | 3.0 | 0.00 | 0.00 | 0.00 | 9 | 1014.8 |
| 20260901221441 | 74 | 292 | 2.0 | 2.0 | 0.00 | 0.00 | 0.00 | 9 | 1014.7 |
| 20260901221028 | 74 | 270 | 2.0 | 2.0 | 0.00 | 0.00 | 0.00 | 9 | 1014.8 |
| 20260901220618 | 74 | 270 | 2.0 | 2.0 | 0.00 | 0.00 | 0.00 | 9 | 1014.7 |
| 20260901220549 | 74 | 270 | 1.0 | 2.0 | 0.00 | 0.00 | 0.00 | 9 | 1014.8 |
| 20260901220125 | 75 | 0 | 0.0 | 0.0 | 0.00 | 0.00 | 0.00 | 9 | 1014.6 |
| 20260901215659 | 75 | 0 | 0.0 | 0.0 | 0.00 | 0.00 | 0.00 | 9 | 1014.8 |
| 20260901215353 | 75 | 0 | 0.0 | 0.0 | 0.00 | 0.00 | 0.00 | 9 | 1014.7 |
| 20260901214934 | 75 | 0 | 0.0 | 0.0 | 0.00 | 0.00 | 0.00 | 9 | 1014.6 |
| 20260901214645 | 74 | 0 | 0.0 | 0.0 | 0.00 | 0.00 | 0.00 | 9 | 1014.6 |
| 20260901214515 | 74 | 0 | 0.0 | 1.0 | 0.00 | 0.00 | 0.00 | 9 | 1014.8 |
| 20260901214030 | 75 | 0 | 0.0 | 0.0 | 0.00 | 0.00 | 0.00 | 9 | 1014.8 |
| 20260901213646 | 75 | 0 | 0.0 | 0.0 | 0.00 | 0.00 | 0.00 | 9 | 1014.8 |
| 20260901213614 | 75 | 0 | 0.0 | 0.0 | 0.00 | 0.00 | 0.00 | 9 | 1014.8 |
| 20260901213149 | 75 | 0 | 0.0 | 0.0 | 0.00 | 0.00 | 0.00 | 9 | 1014.6 |
| 20260901212656 | 75 | 0 | 0.0 | 0.0 | 0.00 | 0.00 | 0.00 | 9 | 1014.7 |
| 20260901212654 | 75 | 0 | 0.0 | 0.0 | 0.00 | 0.00 | 0.00 | 9 | 1014.7 |
| 20260901212433 | 75 | 0 | 0.0 | 0.0 | 0.00 | 0.00 | 0.00 | 9 | 1014.7 |
| 20260901211935 | 74 | 0 | 0.0 | 1.0 | 0.00 | 0.00 | 0.00 | 9 | 1014.8 |
| 20260901211641 | 75 | 0 | 0.0 | 0.0 | 0.00 | 0.00 | 0.00 | 9 | 1014.7 |
| 20260901211452 | 75 | 270 | 0.0 | 1.0 | 0.00 | 0.00 | 0.00 | 9 | 1014.8 |
| 20260901211028 | 75 | 270 | 1.0 | 2.0 | 0.00 | 0.00 | 0.00 | 9 | 1014.8 |
| 20260901210642 | 75 | 292 | 1.0 | 2.0 | 0.00 | 0.00 | 0.00 | 9 | 1014.8 |
| 20260901210609 | 75 | 292 | 1.0 | 2.0 | 0.00 | 0.00 | 0.00 | 9 | 1014.8 |
| 20260901210144 | 75 | 270 | 2.0 | 2.0 | 0.00 | 0.00 | 0.00 | 9 | 1014.8 |
| 20260901205653 | 75 | 292 | 2.0 | 2.0 | 0.00 | 0.00 | 0.00 | 9 | 1014.7 |
| 20260901205650 | 75 | 292 | 2.0 | 2.0 | 0.00 | 0.00 | 0.00 | 9 | 1014.7 |
| 20260901205314 | 75 | 292 | 2.0 | 3.0 | 0.00 | 0.00 | 0.00 | 9 | 1014.7 |
| 20260901205307 | 75 | 270 | 2.0 | 3.0 | 0.00 | 0.00 | 0.00 | 9 | 1014.8 |
| 20260901204845 | 75 | 270 | 3.0 | 3.0 | 0.00 | 0.00 | 0.00 | 9 | 1014.7 |
| 20260901204432 | 75 | 270 | 3.0 | 3.0 | 0.00 | 0.00 | 0.00 | 9 | 1014.5 |
| 20260901204002 | 75 | 180 | 2.0 | 3.0 | 0.00 | 0.00 | 0.00 | 9 | 1014.6 |
| 20260901203601 | 76 | 180 | 1.0 | 2.0 | 0.00 | 0.00 | 0.00 | 9 | 1014.6 |
| 20260901203544 | 76 | 180 | 1.0 | 2.0 | 0.00 | 0.00 | 0.00 | 9 | 1014.5 |